Погода в Виборге

Дания     56°27′17″N   9°23′07″E
темп.,
°C
ветер,
м/с
пор.,
м/с
влажн.,
%
обл.,
%
осадки,
мм/ч
давл.,
гПа
погр.,
м
23 октября, сб
сб2323:00+8зсз1119643 0.0 10081141
02:00+8сз1118630 0.0 10111174
05:00+7сз814625 0.0 1013918
08:00+7сз613645 0.0 1015499
11:00+9зсз596474 0.0 10201097
14:00+11зсз6758100 0.0 10211337
17:00+9з367241 0.0 1023205
20:00+6юз3481100 0.0 102458
24 октября, вс
вс2423:00+6ююз3682100 0.0 102492
02:00+9ююз51376100 0.0 1023419
05:00+9ююз51188100 0.1 1022342
08:00+10ююз61391100 0.1 1021534
11:00+11ююз7128486 0.1 1022736
14:00+12ююз71276100 0.1 1021845
17:00+11ююз711795 0.0 1020709
20:00+8ю6138964 0.0 1019516
25 октября, пн
пн2523:00+7ю61387100 0.0 1018411
02:00+7ю4119196 0.0 1017286
05:00+6ю4109487 0.0 1016207
08:00+7ю51191100 0.0 1014279
11:00+10ю61185100 0.0 1014385
14:00+12ююз61185100 0.0 1013628
17:00+12ююз61185100 0.1 1012864
20:00+10ююз6129493 0.2 1012440
26 октября, вт
вт2623:00+9ююз4995100 0.0 1012240
02:00+8юз389565 0.0 1013156
05:00+7юз49955 0.0 1013185
08:00+7зюз48935 0.0 1014171
11:00+10зюз59794 0.0 1015670
14:00+12зюз6967100 0.0 10151254
17:00+10юз51077100 0.0 1015628
20:00+9юз51187100 0.0 1015358
27 октября, ср
ср2723:00+9ююз51192100 0.9 1015538
02:00+11юз71395100 1.8 1013671
05:00+12зюз61296100 0.1 1014573
08:00+12зюз61195100 0.1 1015519
11:00+13юз71287100 0.0 1016603
14:00+15юз81483100 0.0 1016773
17:00+13юз71388100 0.0 1016593
20:00+13зюз71387100 0.1 1017681